FW6531 Weather Reports


Display with metric or nautical units.
time (UTC)temp
F
wind
direction
speed
MPH
gust
MPH
rain 1hr
in
rain 24hr
in
rain mn
in
humidity
%
barometer
mb
20260508213010 55 314 4.0 13.0 0.00 0.00 0.00 40 1007.8
20260508212511 55 304 4.0 13.0 0.00 0.00 0.00 39 1007.8
20260508212010 55 300 6.0 11.0 0.00 0.00 0.00 39 1007.7
20260508211523 55 304 5.0 14.0 0.00 0.00 0.00 41 1007.8
20260508211009 55 310 4.0 14.0 0.00 0.00 0.00 40 1007.7
20260508210509 55 346 5.0 13.0 0.00 0.00 0.00 43 1007.6
20260508210009 55 337 6.0 15.0 0.00 0.00 0.00 41 1007.5
20260508205508 55 280 5.0 15.0 0.00 0.00 0.00 41 1007.5
20260508205008 55 293 6.0 15.0 0.00 0.00 0.00 42 1007.3
20260508204509 55 293 5.0 15.0 0.00 0.00 0.00 40 1007.4
20260508204007 55 270 5.0 15.0 0.00 0.00 0.00 41 1007.2
20260508203507 55 257 5.0 11.0 0.00 0.00 0.00 42 1007.2
20260508203007 55 249 5.0 14.0 0.00 0.00 0.00 42 1007.2
20260508202508 55 315 6.0 14.0 0.00 0.00 0.00 42 1007.1
20260508202007 55 269 3.0 14.0 0.00 0.00 0.00 43 1007.1
20260508201507 55 306 5.0 14.0 0.00 0.00 0.00 40 1007.0
20260508201008 55 298 4.0 10.0 0.00 0.00 0.00 41 1007.0
20260508200506 55 319 4.0 13.0 0.00 0.00 0.00 41 1006.9
20260508200008 55 323 3.0 13.0 0.00 0.00 0.00 41 1006.9
20260508195509 55 321 3.0 11.0 0.00 0.00 0.00 40 1006.9
20260508195005 55 261 5.0 12.0 0.00 0.00 0.00 39 1006.9
20260508194516 55 246 4.0 10.0 0.00 0.00 0.00 41 1006.8
20260508194006 55 319 4.0 11.0 0.00 0.00 0.00 41 1006.7
20260508193505 55 258 4.0 11.0 0.00 0.00 0.00 41 1006.8
20260508193005 55 242 3.0 11.0 0.00 0.00 0.00 40 1006.7
20260508192508 55 321 3.0 11.0 0.00 0.00 0.00 41 1006.7
20260508192005 55 342 5.0 13.0 0.00 0.00 0.00 40 1006.6
20260508191505 55 330 6.0 13.0 0.00 0.00 0.00 40 1006.6
20260508191004 55 319 2.0 13.0 0.00 0.00 0.00 43 1006.7
20260508190506 55 346 3.0 15.0 0.00 0.00 0.00 41 1006.6
20260508190011 55 286 3.0 15.0 0.00 0.00 0.00 40 1006.7
20260508185503 55 301 3.0 11.0 0.00 0.00 0.00 41 1006.7
20260508185005 55 290 3.0 13.0 0.00 0.00 0.00 40 1006.5
20260508184507 55 301 7.0 13.0 0.00 0.00 0.00 41 1006.6
20260508184003 55 311 4.0 12.0 0.00 0.00 0.00 41 1006.6
20260508183503 56 285 4.0 13.0 0.00 0.00 0.00 40 1006.6
20260508183003 56 265 5.0 13.0 0.00 0.00 0.00 40 1006.6
20260508182503 56 268 2.0 9.0 0.00 0.00 0.00 41 1006.7
20260508182002 56 314 4.0 9.0 0.00 0.00 0.00 41 1006.6
20260508181507 56 300 1.0 6.0 0.00 0.00 0.00 42 1006.7
20260508181002 56 334 2.0 7.0 0.00 0.00 0.00 41 1006.7
20260508180503 56 276 2.0 8.0 0.00 0.00 0.00 41 1006.7
20260508180006 56 270 2.0 8.0 0.00 0.00 0.00 41 1006.6
20260508175502 56 266 4.0 11.0 0.00 0.00 0.00 41 1006.6
20260508175003 56 254 4.0 13.0 0.00 0.00 0.00 40 1006.6
20260508174501 56 276 5.0 13.0 0.00 0.00 0.00 41 1006.5
20260508174001 56 315 3.0 10.0 0.00 0.00 0.00 40 1006.6
20260508173501 56 333 2.0 10.0 0.00 0.00 0.00 41 1006.5
20260508173003 56 278 3.0 7.0 0.00 0.00 0.00 40 1006.6
20260508172501 55 231 2.0 7.0 0.00 0.00 0.00 41 1006.5
20260508172001 55 303 2.0 8.0 0.00 0.00 0.00 41 1006.5
20260508171600 55 267 1.0 8.0 0.00 0.00 0.00 40 1006.4
20260508171101 55 320 4.0 8.0 0.00 0.00 0.00 39 1006.5
20260508170559 55 263 4.0 9.0 0.00 0.00 0.00 39 1006.5
20260508165559 56 263 3.0 9.0 0.00 0.00 0.00 39 1006.6
20260508165159 56 273 3.0 9.0 0.00 0.00 0.00 39 1006.6
20260508164601 55 290 2.0 16.0 0.00 0.00 0.00 41 1006.6
20260508164059 55 302 4.0 17.0 0.00 0.00 0.00 41 1006.7
20260508163603 55 297 5.0 17.0 0.00 0.00 0.00 41 1006.6
20260508163102 55 333 4.0 10.0 0.00 0.00 0.00 39 1006.7
20260508162558 55 307 5.0 15.0 0.00 0.00 0.00 40 1006.6
20260508162058 55 300 5.0 15.0 0.00 0.00 0.00 40 1006.6
20260508161559 55 306 6.0 13.0 0.00 0.00 0.00 39 1006.6
20260508161058 56 339 7.0 13.0 0.00 0.00 0.00 37 1006.6
20260508160556 56 269 4.0 11.0 0.00 0.00 0.00 37 1006.6
20260508160057 56 311 4.0 13.0 0.00 0.00 0.00 37 1006.6
20260508155559 57 257 4.0 13.0 0.00 0.00 0.00 36 1006.7
20260508155056 57 332 5.0 12.0 0.00 0.00 0.00 38 1006.6
20260508154619 56 306 3.0 13.0 0.00 0.00 0.00 39 1006.7
20260508154056 57 317 3.0 13.0 0.00 0.00 0.00 36 1006.7
20260508153556 57 263 3.0 12.0 0.00 0.00 0.00 38 1006.8
20260508153056 57 292 5.0 13.0 0.00 0.00 0.00 36 1006.8
20260508152555 57 292 5.0 13.0 0.00 0.00 0.00 40 1006.8
20260508152055 57 306 5.0 10.0 0.00 0.00 0.00 36 1006.8
20260508151554 57 267 4.0 10.0 0.00 0.00 0.00 38 1006.9
20260508151053 57 264 4.0 11.0 0.00 0.00 0.00 37 1006.9
20260508150555 57 294 5.0 14.0 0.00 0.00 0.00 39 1007.0
20260508150050 57 261 6.0 14.0 0.00 0.00 0.00 38 1007.1
20260508145549 56 272 3.0 13.0 0.00 0.00 0.00 38 1007.0
20260508145049 56 248 6.0 13.0 0.00 0.00 0.00 38 1007.0
20260508144600 56 286 4.0 18.0 0.00 0.00 0.00 38 1007.0
20260508144046 56 275 7.0 18.0 0.00 0.00 0.00 38 1007.1
20260508143546 56 303 4.0 12.0 0.00 0.00 0.00 39 1007.1
20260508143044 56 273 7.0 12.0 0.00 0.00 0.00 39 1007.2
20260508142543 56 288 4.0 10.0 0.00 0.00 0.00 39 1007.2
20260508142042 56 272 3.0 12.0 0.00 0.00 0.00 42 1007.2
20260508141542 56 346 5.0 13.0 0.00 0.00 0.00 43 1007.3
20260508141039 56 309 4.0 13.0 0.00 0.00 0.00 42 1007.2
20260508140538 56 283 5.0 10.0 0.00 0.00 0.00 40 1007.2
20260508140038 56 232 5.0 11.0 0.00 0.00 0.00 43 1007.3
20260508135536 56 262 5.0 13.0 0.00 0.00 0.00 44 1007.5
20260508135033 55 261 2.0 11.0 0.00 0.00 0.00 46 1007.4
20260508134545 55 323 5.0 11.0 0.00 0.00 0.00 43 1007.5
20260508134031 55 294 4.0 13.0 0.00 0.00 0.00 44 1007.6
20260508133530 55 293 4.0 13.0 0.00 0.00 0.00 44 1007.6
20260508133045 55 296 3.0 11.0 0.00 0.00 0.00 43 1007.6
20260508132527 55 330 3.0 11.0 0.00 0.00 0.00 48 1007.7
20260508132027 54 284 4.0 11.0 0.00 0.00 0.00 47 1007.6
20260508131525 54 333 4.0 10.0 0.00 0.00 0.00 47 1007.6
20260508131024 53 260 4.0 9.0 0.00 0.00 0.00 47 1007.7
20260508130520 53 355 4.0 10.0 0.00 0.00 0.00 47 1007.6
20260508130022 53 309 2.0 10.0 0.00 0.00 0.00 49 1007.6
20260508125519 52 273 5.0 10.0 0.00 0.00 0.00 47 1007.6
20260508125020 52 271 4.0 12.0 0.00 0.00 0.00 47 1007.6
20260508124518 52 255 6.0 12.0 0.00 0.00 0.00 47 1007.6
20260508124017 52 313 3.0 8.0 0.00 0.00 0.00 49 1007.6
20260508123515 52 292 3.0 10.0 0.00 0.00 0.00 49 1007.7
20260508123025 52 264 3.0 10.0 0.00 0.00 0.00 51 1007.7
20260508122512 51 314 4.0 9.0 0.00 0.00 0.00 50 1007.6
20260508122011 51 279 3.0 9.0 0.00 0.00 0.00 50 1007.7
20260508121514 51 260 3.0 8.0 0.00 0.00 0.00 50 1007.7
20260508121010 51 325 3.0 6.0 0.00 0.00 0.00 52 1007.6
20260508120508 51 327 2.0 6.0 0.00 0.00 0.00 52 1007.7
20260508120008 50 311 2.0 6.0 0.00 0.00 0.00 53 1007.7
20260508115507 50 281 1.0 6.0 0.00 0.00 0.00 53 1007.7
20260508115007 49 292 2.0 9.0 0.00 0.00 0.00 52 1007.7
20260508114504 49 265 4.0 9.0 0.00 0.00 0.00 52 1007.8
20260508114004 49 261 4.0 8.0 0.00 0.00 0.00 53 1007.6
20260508113502 48 263 2.0 6.0 0.00 0.00 0.00 55 1007.6
20260508113104 48 331 3.0 6.0 0.00 0.00 0.00 55 1007.6
20260508112602 48 327 2.0 6.0 0.00 0.00 0.00 56 1007.6
20260508112057 47 307 1.0 4.0 0.00 0.00 0.00 57 1007.7
20260508111556 47 286 1.0 6.0 0.00 0.00 0.00 58 1007.6
20260508111055 46 270 0.0 8.0 0.00 0.00 0.00 59 1007.6
20260508110553 46 285 3.0 8.0 0.00 0.00 0.00 58 1007.5
20260508110051 45 298 2.0 6.0 0.00 0.00 0.00 60 1007.6
20260508105555 44 242 1.0 4.0 0.00 0.00 0.00 62 1007.5
20260508105049 44 263 2.0 4.0 0.00 0.00 0.00 61 1007.5
20260508104549 44 261 1.0 4.0 0.00 0.00 0.00 62 1007.5
20260508104051 43 254 2.0 4.0 0.00 0.00 0.00 63 1007.5
20260508103547 43 257 1.0 4.0 0.00 0.00 0.00 65 1007.5
20260508103051 43 254 2.0 4.0 0.00 0.00 0.00 64 1007.3
20260508102546 43 261 1.0 4.0 0.00 0.00 0.00 64 1007.2
20260508102048 44 261 1.0 4.0 0.00 0.00 0.00 63 1007.2
20260508101544 44 261 1.0 6.0 0.00 0.00 0.00 61 1007.1
20260508101043 44 261 1.0 6.0 0.00 0.00 0.00 60 1007.1
20260508100542 44 262 2.0 6.0 0.00 0.00 0.00 60 1007.1
20260508100056 43 258 1.0 3.0 0.00 0.00 0.00 61 1007.1
20260508095541 43 258 1.0 7.0 0.00 0.00 0.00 61 1007.0
20260508095040 43 261 2.0 8.0 0.00 0.00 0.00 60 1006.9
20260508094541 43 258 3.0 8.0 0.00 0.00 0.00 60 1006.8
20260508094042 43 265 1.0 4.0 0.00 0.00 0.00 60 1006.8
20260508093539 43 263 2.0 7.0 0.00 0.00 0.00 59 1006.7
20260508093039 43 262 2.0 7.0 0.00 0.00 0.00 60 1006.6
20260508092537 43 265 2.0 6.0 0.00 0.00 0.00 60 1006.6
20260508092041 43 263 2.0 6.0 0.00 0.00 0.00 59 1006.5
20260508091537 43 261 2.0 6.0 0.00 0.00 0.00 59 1006.4
20260508091036 43 264 2.0 6.0 0.00 0.00 0.00 59 1006.3
20260508090535 43 259 2.0 6.0 0.00 0.00 0.00 59 1006.2
20260508090049 43 264 2.0 4.0 0.00 0.01 0.00 58 1006.3
20260508085534 43 262 1.0 6.0 0.00 0.01 0.00 57 1006.2
20260508085032 44 261 2.0 6.0 0.00 0.01 0.00 57 1006.1
20260508084537 44 281 1.0 3.0 0.00 0.01 0.00 57 1006.1
20260508084032 44 275 1.0 3.0 0.00 0.01 0.00 57 1006.0
20260508083535 44 263 1.0 6.0 0.00 0.01 0.00 56 1006.1
20260508083032 44 262 2.0 6.0 0.00 0.01 0.00 56 1006.1
20260508082535 44 261 2.0 4.0 0.00 0.01 0.00 56 1006.0
20260508082033 44 259 2.0 6.0 0.00 0.01 0.00 56 1006.0
20260508081535 44 261 2.0 6.0 0.00 0.01 0.00 56 1005.9
20260508081031 44 263 2.0 4.0 0.00 0.01 0.00 56 1005.9
20260508080532 44 269 2.0 5.0 0.00 0.01 0.00 56 1005.9
20260508080037 44 271 1.0 5.0 0.00 0.01 0.00 56 1005.9
20260508075531 44 298 1.0 4.0 0.00 0.01 0.00 56 1005.9
20260508075030 44 311 1.0 3.0 0.00 0.01 0.00 56 1005.9
20260508074529 44 311 1.0 4.0 0.00 0.01 0.00 56 1005.7
20260508074029 44 301 1.0 4.0 0.00 0.01 0.00 56 1005.8
20260508073529 44 294 1.0 4.0 0.00 0.01 0.00 56 1005.7
20260508073035 44 272 2.0 4.0 0.00 0.01 0.00 55 1005.7
20260508072529 44 292 2.0 5.0 0.00 0.01 0.00 55 1005.7
20260508072032 44 295 2.0 5.0 0.00 0.01 0.00 56 1005.7
20260508071529 44 315 2.0 6.0 0.00 0.01 0.00 56 1005.7
20260508071028 44 323 2.0 6.0 0.00 0.01 0.00 56 1005.7
20260508070528 44 319 2.0 5.0 0.00 0.01 0.00 56 1005.7
20260508070027 44 323 2.0 7.0 0.00 0.01 0.00 56 1005.7
20260508065527 45 315 2.0 7.0 0.00 0.01 0.00 55 1005.6
20260508065030 45 355 1.0 8.0 0.00 0.01 0.00 55 1005.6
20260508064530 45 327 1.0 9.0 0.00 0.01 0.00 56 1005.6
20260508064027 45 322 4.0 9.0 0.00 0.01 0.00 55 1005.7
20260508063525 45 333 3.0 6.0 0.00 0.01 0.00 54 1005.9
20260508063027 45 304 2.0 7.0 0.00 0.01 0.00 54 1005.9
20260508062524 45 332 2.0 10.0 0.00 0.01 0.00 54 1005.9
20260508062024 46 329 5.0 12.0 0.00 0.01 0.00 53 1006.0
20260508061532 46 305 5.0 12.0 0.00 0.01 0.00 53 1005.9
20260508061023 46 297 5.0 12.0 0.00 0.01 0.00 53 1005.9
20260508060523 45 308 5.0 11.0 0.00 0.01 0.00 53 1005.9
20260508060022 45 336 6.0 11.0 0.00 0.02 0.00 53 1005.9
20260508055521 45 341 4.0 10.0 0.00 0.02 0.00 54 1006.1
20260508055020 45 355 5.0 10.0 0.00 0.02 0.00 54 1006.1
20260508054519 45 351 5.0 10.0 0.00 0.02 0.00 54 1006.1
20260508054019 45 306 2.0 5.0 0.00 0.02 0.00 55 1006.2
20260508053517 45 307 2.0 8.0 0.00 0.02 0.00 55 1006.2
20260508053020 45 327 2.0 9.0 0.00 0.02 0.00 54 1006.2
20260508052516 44 325 4.0 9.0 0.00 0.02 0.00 54 1006.3
20260508052017 44 279 2.0 4.0 0.00 0.02 0.00 55 1006.3
20260508051514 45 286 2.0 5.0 0.00 0.02 0.00 56 1006.5
20260508050512 45 308 0.0 4.0 0.00 0.02 0.00 55 1006.7
20260508050011 45 308 2.0 6.0 0.00 0.10 0.00 55 1006.6
20260508045512 45 309 3.0 6.0 0.00 0.10 0.00 54 1006.7
20260508045010 45 327 2.0 5.0 0.00 0.10 0.00 54 1006.7
20260508044510 45 318 3.0 5.0 0.00 0.10 0.00 54 1006.6
20260508044008 45 313 1.0 4.0 0.00 0.10 0.00 53 1006.6
20260508043507 46 311 1.0 3.0 0.00 0.10 0.00 53 1006.7
20260508043007 46 308 0.0 3.0 0.00 0.10 0.00 52 1006.8
20260508042506 46 308 1.0 3.0 0.00 0.10 0.00 52 1006.7
20260508042006 46 306 0.0 4.0 0.00 0.10 0.00 52 1006.7
20260508041505 46 306 1.0 4.0 0.00 0.10 0.00 52 1006.7
20260508041003 47 297 1.0 5.0 0.00 0.10 0.00 52 1006.7
20260508040501 47 321 3.0 6.0 0.00 0.10 0.00 50 1006.7
20260508040001 47 298 1.0 6.0 0.00 0.11 0.10 51 1006.7
20260508035501 47 319 1.0 5.0 0.00 0.11 0.10 51 1006.7
20260508035001 47 312 1.0 5.0 0.00 0.11 0.10 51 1006.7
20260508034502 48 313 1.0 5.0 0.00 0.11 0.10 51 1006.7
20260508034001 48 309 1.0 3.0 0.00 0.11 0.10 51 1006.8
20260508033600 48 309 1.0 4.0 0.00 0.11 0.10 50 1006.8
20260508033104 48 328 2.0 4.0 0.00 0.11 0.10 49 1006.9
20260508032603 48 319 0.0 5.0 0.00 0.11 0.10 48 1006.8
20260508032103 48 316 2.0 5.0 0.00 0.11 0.10 48 1006.8
20260508031601 49 311 3.0 5.0 0.00 0.11 0.10 49 1006.6
20260508031101 49 329 1.0 4.0 0.00 0.11 0.10 49 1006.8
20260508030600 49 309 2.0 8.0 0.00 0.11 0.10 50 1006.9
20260508030104 49 308 3.0 8.0 0.00 0.12 0.10 48 1006.9
20260508025601 49 316 2.0 4.0 0.00 0.12 0.10 49 1006.8
20260508025059 50 306 1.0 4.0 0.00 0.12 0.10 47 1006.8
20260508024619 50 329 2.0 5.0 0.00 0.12 0.10 47 1006.8
20260508024058 50 314 2.0 8.0 0.00 0.12 0.10 47 1006.7
20260508023557 50 309 3.0 9.0 0.00 0.12 0.10 47 1006.5
20260508023057 50 324 3.0 8.0 0.00 0.12 0.10 47 1006.5
20260508022601 51 327 3.0 8.0 0.00 0.12 0.10 46 1006.4
20260508022056 51 309 4.0 8.0 0.00 0.12 0.10 46 1006.4
20260508021605 51 292 3.0 10.0 0.00 0.12 0.10 47 1006.4
20260508021055 51 322 4.0 15.0 0.00 0.12 0.10 46 1006.5
20260508020601 51 348 4.0 15.0 0.00 0.12 0.10 45 1006.4
20260508020104 51 24 5.0 14.0 0.00 0.14 0.10 45 1006.3
20260508015555 52 15 4.0 10.0 0.00 0.14 0.10 47 1006.3
20260508015054 52 332 3.0 11.0 0.00 0.14 0.10 46 1006.2
20260508014557 52 329 5.0 11.0 0.00 0.14 0.10 46 1006.1
20260508014054 52 12 6.0 12.0 0.00 0.14 0.10 45 1006.0
20260508013555 52 327 5.0 12.0 0.00 0.14 0.10 45 1006.1
20260508013054 53 336 4.0 10.0 0.00 0.14 0.10 44 1006.0
20260508012623 53 310 4.0 10.0 0.00 0.14 0.10 45 1005.9
20260508012053 53 344 3.0 11.0 0.00 0.14 0.10 46 1005.8
20260508011606 53 11 4.0 12.0 0.00 0.14 0.10 43 1005.8
20260508011052 53 313 4.0 12.0 0.00 0.14 0.10 43 1005.7
20260508010552 53 309 5.0 14.0 0.00 0.14 0.10 44 1005.7
20260508010055 54 308 6.0 13.0 0.00 0.15 0.10 44 1005.6
20260508005555 54 328 4.0 10.0 0.00 0.15 0.10 44 1005.5
20260508005051 54 333 4.0 10.0 0.00 0.15 0.10 45 1005.5
20260508004556 54 345 3.0 12.0 0.00 0.15 0.10 45 1005.3
20260508004051 55 342 5.0 12.0 0.00 0.15 0.10 43 1005.2
20260508003551 55 360 5.0 12.0 0.00 0.15 0.10 43 1005.0
20260508003050 55 349 5.0 12.0 0.00 0.15 0.10 44 1004.9
20260508002551 55 306 2.0 9.0 0.00 0.15 0.10 43 1004.8
20260508002050 56 340 3.0 9.0 0.00 0.15 0.10 41 1004.6
20260508001551 56 308 4.0 12.0 0.00 0.15 0.10 41 1004.6
20260508001050 56 313 4.0 12.0 0.00 0.15 0.10 39 1004.5
20260508000550 56 319 2.0 9.0 0.00 0.15 0.10 44 1004.6
20260508000049 57 331 2.0 8.0 0.00 0.15 0.10 41 1004.4
20260507235549 57 340 2.0 8.0 0.00 0.15 0.10 41 1004.4
20260507235048 57 323 2.0 6.0 0.00 0.15 0.10 39 1004.4
20260507234548 57 315 1.0 5.0 0.00 0.15 0.10 38 1004.3
20260507234048 57 272 1.0 4.0 0.00 0.15 0.10 37 1004.4
20260507233547 57 269 2.0 6.0 0.00 0.15 0.10 36 1004.3
20260507233048 58 271 1.0 6.0 0.00 0.15 0.10 36 1004.2
20260507232548 58 278 2.0 7.0 0.00 0.15 0.10 35 1004.0
20260507232051 58 267 2.0 7.0 0.00 0.15 0.10 35 1004.1
20260507231547 58 266 3.0 6.0 0.00 0.15 0.10 35 1004.0
20260507231047 58 261 1.0 8.0 0.00 0.15 0.10 35 1003.8
20260507230550 58 259 3.0 8.0 0.00 0.15 0.10 34 1003.7
20260507230104 58 278 1.0 7.0 0.00 0.15 0.10 34 1003.7
20260507225546 59 298 2.0 10.0 0.00 0.15 0.10 33 1003.6
20260507225046 59 262 4.0 10.0 0.00 0.15 0.10 32 1003.5
20260507224551 59 277 3.0 11.0 0.00 0.15 0.10 32 1003.5
20260507224045 59 302 4.0 11.0 0.00 0.15 0.10 32 1003.5
20260507223545 60 279 4.0 12.0 0.00 0.15 0.10 31 1003.5
20260507223045 60 304 6.0 12.0 0.00 0.15 0.10 32 1003.5
20260507222545 60 257 5.0 10.0 0.00 0.15 0.10 33 1003.3
20260507222044 60 293 3.0 11.0 0.00 0.15 0.10 32 1003.4
20260507221547 60 46 2.0 14.0 0.00 0.15 0.10 33 1003.3
20260507221044 60 310 5.0 14.0 0.00 0.15 0.10 34 1003.3
20260507220544 60 320 3.0 10.0 0.00 0.15 0.10 33 1003.2
20260507220050 60 322 4.0 10.0 0.00 0.21 0.10 33 1003.3
20260507215544 60 309 4.0 10.0 0.00 0.21 0.10 34 1003.3
20260507215043 61 322 2.0 9.0 0.00 0.21 0.10 33 1003.2
20260507214544 61 277 4.0 9.0 0.00 0.21 0.10 33 1003.2
20260507214043 61 327 4.0 12.0 0.00 0.21 0.10 34 1003.3
20260507213543 61 257 4.0 12.0 0.00 0.21 0.10 34 1003.2